Вернуться в каталог

JAY-D1

АктивенВоенныеSSO
NORAD 62669·PAYLOAD·🇨🇦 Canada

Запущен Jan 14, 2025 с Vandenberg Space Force Base

Loading…

Ближайшие Пролёты (ближайшие 24 часа)

TLE

СвежийSource: Space-Track

Эпоха: Sep 14, 2026, 13:27 UTC

1 62669U 25009BN  26257.56075165  .00002859  00000-0  12507-3 0  9994
2 62669  97.3972 335.5819 0006054  42.5106 317.6598 15.22859391149979

Отслеживайте JAY-D1 в реальном времени с AllMySat

Download on the App Store